IUS DEB, 43364

Orbit data source: Space-Track

IUS DEB, 43364 is space debris originally from a launch on Fri, 23 Jul 1999 UTC launched from the Air Force Eastern Test Range (AFETR). Debris objects in space refer to the collection of defunct objects orbiting the Earth. Examples of debris include non-operational satellites, rocket bodies, and fragments generated from explosions, collisions, or faulty payload assembly.

Loading next visibility...
Identifier
43364, 1999-040M
Orbit
Active
Last TLE update
13 hours ago
Origin
Manufacturer
Boeing/Kent
Mission
Spacecraft
Bus & Motor
Unknown
Mass
Unknown
Launch date (UTC)
1999-07-23 (26 years ago)
Launch vehicle
Unknown
Launch site
Air Force Eastern Test Range (AFETR)
Object type
Payload
Rocket body
Debris
Shape & HBR
Unknown
Radar Cross Section
Small (<0.1 m²)

Expand to show TLE details & history

TLE from 13 hours ago
0 IUS DEB
1 43364U 99040M   25182.19573420  .00001023  00000-0  78485-2 0  9991
2 43364  28.0688 152.2918 3740386 101.7701 301.7163  7.02299469119808
Epoch: 2025-07-01T04:41Z
TLE epoch observation values (Epoch: 2025-07-01T04:41:51.434Z)
Latitude
-0.00001°
Longitude
162.33281°
Altitude
4,342.488 km
Speed
6.306 km/s
True Right ascension
10h 09m 10s
True Declination
0° 00' 00"
Sunlit
Object was in daylight at epoch
Visualization orbit readout
Latitude
-14.89913°
Longitude
131.66345°
Altitude
7,187.636 km
Speed
4.917 km/s
Apparent Right ascension
09h 17m 38s
Apparent Declination
-37° 59' 32"
Sunlit
Object is in daylight
Visualization observer readout
Local Sidereal Time
05:38:14
Azimuth
139.827° SSE
Elevation
-2.693°
Doppler factor
1
Orbital elements
Apogee altitude
9,452.809 km
Perigee altitude
833.859 km
Semi-major axis
11,521.471 km
Eccentricity
0.37404
Inclination
28.0688°
RAAN
152.2918°
Arg. of periapsis
101.7701°
True anomaly
Unknown
Mean anomaly
301.7163°
Eccentric anomaly
Unknown
Mean motion
1.75502 °/min
Orbital period
205.13 mins
BSTAR
0.0078485
Loading maneuver chart data...
Loading SW <> Apogee altitude chart data...
Loading historical data...
Loading historical data...
Loading historical data...
Loading historical data...
Loading historical data...
Loading historical data...
Loading historical data...

IUS DEB Visibility forecast

Observer location: undefined°, undefined°

Span
Click to sort rows by Start time (UTC) header in descending order
Start Az.
Max El. time (UTC)
Max El. Az.
Max El.
End time (UTC)
End Az.
22 mins2025-07-01 21:33:33.197Z186.53° SSW2025-07-01 21:47:33.197Z161.733° S14.102°2025-07-01 21:55:33.197Z137.496° SSE
15 mins2025-07-02 01:22:33.197Z221.359° SW2025-07-02 01:31:33.197Z178.779° S24.28°2025-07-02 01:37:33.197Z119.373° SE
7 mins2025-07-02 05:05:33.197Z235.128° WSW2025-07-02 05:08:33.197Z196.511° SSW21.739°2025-07-02 05:12:33.197Z137.678° SSE
|